TimeBST,TemperatureF,Dew PointF,Humidity,Sea Level PressureIn,VisibilityMPH,Wind Direction,Wind SpeedMPH,Gust SpeedMPH,PrecipitationIn,Events,Conditions,WindDirDegrees,DateUTC
12:20 AM,44.6,41.0,87,29.77,5.6,SSW,4.6,-,N/A,,Mostly Cloudy,200,2013-05-11 23:20:00
12:50 AM,46.4,42.8,87,29.77,6.2,West,5.8,-,N/A,,Mostly Cloudy,270,2013-05-11 23:50:00
1:20 AM,48.2,42.8,82,29.77,6.2,West,10.4,-,N/A,,Mostly Cloudy,280,2013-05-12 00:20:00
1:50 AM,46.4,41.0,81,29.77,6.2,West,10.4,-,N/A,,Mostly Cloudy,270,2013-05-12 00:50:00
2:20 AM,46.4,41.0,81,29.77,6.2,West,8.1,-,N/A,,Mostly Cloudy,280,2013-05-12 01:20:00
2:50 AM,46.4,42.8,87,29.80,6.2,West,9.2,-,N/A,,Overcast,270,2013-05-12 01:50:00
3:20 AM,46.4,42.8,87,29.80,6.2,West,8.1,-,N/A,,Overcast,260,2013-05-12 02:20:00
3:50 AM,46.4,41.0,81,29.80,6.2,West,9.2,-,N/A,,Mostly Cloudy,260,2013-05-12 02:50:00
4:20 AM,46.4,42.8,87,29.80,6.2,WSW,8.1,-,N/A,,Mostly Cloudy,240,2013-05-12 03:20:00
4:50 AM,46.4,41.0,81,29.80,6.2,West,11.5,-,N/A,,Mostly Cloudy,260,2013-05-12 03:50:00
5:20 AM,44.6,41.0,87,29.80,6.2,WSW,9.2,-,N/A,,Mostly Cloudy,240,2013-05-12 04:20:00
5:50 AM,44.6,41.0,87,29.80,6.2,West,8.1,-,N/A,,Scattered Clouds,260,2013-05-12 04:50:00
6:20 AM,46.4,41.0,81,29.80,6.2,WSW,11.5,-,N/A,,Scattered Clouds,250,2013-05-12 05:20:00
6:50 AM,46.4,41.0,81,29.80,6.2,WSW,13.8,-,N/A,,Scattered Clouds,240,2013-05-12 05:50:00
7:20 AM,46.4,42.8,87,29.80,6.2,WSW,11.5,-,N/A,,Mostly Cloudy,240,2013-05-12 06:20:00
7:50 AM,46.4,42.8,87,29.80,6.2,SW,9.2,-,N/A,,Mostly Cloudy,230,2013-05-12 06:50:00
8:20 AM,46.4,42.8,87,29.77,6.2,WSW,10.4,-,N/A,,Mostly Cloudy,240,2013-05-12 07:20:00
8:50 AM,48.2,42.8,82,29.77,6.2,SW,8.1,-,N/A,,Mostly Cloudy,220,2013-05-12 07:50:00
9:20 AM,48.2,41.0,76,29.77,6.2,SW,12.7,-,N/A,,Scattered Clouds,220,2013-05-12 08:20:00
9:50 AM,46.4,42.8,87,29.77,6.2,SW,12.7,-,N/A,Rain,Light Rain,220,2013-05-12 08:50:00
10:20 AM,46.4,42.8,87,29.77,6.2,SW,11.5,-,N/A,Rain,Light Rain,220,2013-05-12 09:20:00
10:50 AM,46.4,42.8,87,29.77,5.6,SSW,9.2,-,N/A,Rain,Light Rain,210,2013-05-12 09:50:00
11:20 AM,46.4,41.0,81,29.74,6.2,SSW,12.7,-,N/A,Rain,Light Rain,210,2013-05-12 10:20:00
11:50 AM,48.2,42.8,82,29.74,6.2,SSW,10.4,-,N/A,Rain,Light Rain,200,2013-05-12 10:50:00
12:20 PM,48.2,42.8,82,29.71,6.2,South,12.7,-,N/A,Rain,Light Rain,190,2013-05-12 11:20:00
12:50 PM,48.2,44.6,87,29.71,3.7,South,10.4,-,N/A,Rain,Light Rain,190,2013-05-12 11:50:00
1:20 PM,50.0,46.4,87,29.68,3.7,South,11.5,-,N/A,Rain,Light Rain,190,2013-05-12 12:20:00
1:50 PM,50.0,48.2,94,29.65,3.7,SSW,15.0,-,N/A,Rain,Light Rain,200,2013-05-12 12:50:00
2:20 PM,50.0,48.2,94,29.65,4.3,SW,19.6,-,N/A,,Light Drizzle,220,2013-05-12 13:20:00
2:50 PM,50.0,48.2,94,29.65,2.5,SW,17.3,-,N/A,,Light Drizzle,230,2013-05-12 13:50:00
3:20 PM,50.0,48.2,94,29.62,5.0,SW,18.4,-,N/A,,Overcast,230,2013-05-12 14:20:00
3:50 PM,51.8,48.2,88,29.62,2.5,SW,20.7,-,N/A,,Light Drizzle,230,2013-05-12 14:50:00
4:20 PM,51.8,48.2,88,29.62,5.6,SW,15.0,-,N/A,Rain,Light Rain,230,2013-05-12 15:20:00
4:50 PM,51.8,48.2,88,29.62,5.6,WSW,17.3,-,N/A,Rain,Light Rain,250,2013-05-12 15:50:00
5:20 PM,53.6,48.2,82,29.59,6.2,WSW,20.7,32.2,N/A,Rain,Light Rain,250,2013-05-12 16:20:00
5:50 PM,50.0,46.4,87,29.59,6.2,West,21.9,-,N/A,,Mostly Cloudy,260,2013-05-12 16:50:00
6:20 PM,51.8,46.4,82,29.59,6.2,West,19.6,-,N/A,,Scattered Clouds,260,2013-05-12 17:20:00
6:50 PM,51.8,44.6,76,29.59,6.2,WSW,17.3,-,N/A,,Mostly Cloudy,250,2013-05-12 17:50:00
7:20 PM,50.0,44.6,82,29.59,6.2,WSW,19.6,-,N/A,Rain,Light Rain,250,2013-05-12 18:20:00
7:50 PM,48.2,42.8,82,29.59,6.2,West,18.4,-,N/A,Rain,Light Rain,260,2013-05-12 18:50:00
8:20 PM,46.4,41.0,81,29.62,6.2,WNW,16.1,27.6,N/A,,Mostly Cloudy,290,2013-05-12 19:20:00
8:50 PM,46.4,39.2,76,29.62,6.2,WSW,12.7,-,N/A,,Scattered Clouds,240,2013-05-12 19:50:00
9:20 PM,46.4,39.2,76,29.62,6.2,WSW,11.5,-,N/A,,Scattered Clouds,240,2013-05-12 20:20:00
9:50 PM,44.6,39.2,81,29.62,6.2,WSW,17.3,-,N/A,,Scattered Clouds,250,2013-05-12 20:50:00
10:20 PM,44.6,37.4,76,29.65,6.2,WSW,11.5,-,N/A,,Mostly Cloudy,250,2013-05-12 21:20:00
10:50 PM,41.0,37.4,87,29.65,6.2,WSW,8.1,-,N/A,,Scattered Clouds,240,2013-05-12 21:50:00
11:20 PM,42.8,37.4,81,29.65,6.2,WSW,11.5,-,N/A,Rain,Light Rain,240,2013-05-12 22:20:00
11:50 PM,42.8,37.4,81,29.65,6.2,WSW,9.2,-,N/A,,Mostly Cloudy,250,2013-05-12 22:50:00